Regional Weather Roundup
Issued by NWS

Home | Current Version | Previous Version | Graphics & Text | Print | Product List | Glossary On
Versions: 1 2 3 4 5 6 7 8 9 10 11 12 13 14 15 16 17 18 19 20 21 22 23 24 25 26 27
000
ASUS45 KCYS 301410
RWRWY

WYOMING REGIONAL WEATHER ROUNDUP
NATIONAL WEATHER SERVICE CHEYENNE WY
800 AM MDT MON MAY 30 2016

NOTE:  "FAIR" INDICATES FEW OR NO CLOUDS BELOW 12,000 FEET
WITH NO SIGNIFICANT WEATHER AND/OR OBSTRUCTIONS TO VISIBILITY.

WYZ001-301500-
YELLOWSTONE NATIONAL PARK

CITY           SKY/WX    TMP DP  RH WIND       PRES   REMARKS
LK YELLOWSTONE   N/A     43  38  82 CALM      30.18S
W YELLOWSTONE  NOT AVBL

$$
WYZ002>013-054>058-071-098>099-301500-
NORTHERN WYOMING

CITY           SKY/WX    TMP DP  RH WIND       PRES   REMARKS
JACKSON        MOSUNNY   48  41  76 W7        30.13R
CODY           CLOUDY    52  43  71 N8        30.05R
GREYBULL       CLOUDY    61  42  49 NW14      29.97S
WORLAND        CLOUDY    61  42  49 NW10      29.99R
SHERIDAN       FAIR      55  47  74 NW9       30.01R
BUFFALO        CLOUDY    53  44  71 NW25      29.99R
GILLETTE         N/A     57  43  59 NW15      29.94R
HULETT         FAIR      63  43  48 SW13G21   29.92R
NEWCASTLE      FAIR      63  41  45 SE10      29.96F

$$
WYZ014>020-022>026-101>103-301500-
CENTRAL WYOMING

CITY           SKY/WX    TMP DP  RH WIND       PRES   REMARKS
BIG PINEY      FAIR      45  41  86 CALM      30.18S
PINEDALE       FAIR      41  39  93 CALM      30.19S
DUBOIS         FAIR      50  34  53 N8        30.11F
LANDER         FAIR      55  43  63 SE7       30.05R
RIVERTON       CLOUDY    58  37  45 NW14      30.06R
CASPER         CLOUDY    58  42  55 SW10      30.02S
DOUGLAS          N/A    N/A N/A N/A MISG      30.00S

$$
WYZ021-027>030-104>119-301500-
SOUTHERN WYOMING

CITY           SKY/WX    TMP DP  RH WIND       PRES   REMARKS
EVANSTON       FAIR      47  42  83 S8        30.20S
KEMMERER         N/A     46  37  71 CALM      30.20S
FORT BRIDGER   SUNNY     50  41  71 W8        30.22R
ROCK SPRINGS   FAIR      49  38  65 SW12      30.17F
DIXON          PTSUNNY   48  40  73 SE5       30.21S
RAWLINS        CLOUDY    49  38  65 W14       30.14F
SARATOGA       FAIR      52  39  62 NE5       30.18S
LARAMIE        FAIR      50  39  66 S5        30.13S
CHEYENNE       FAIR      59  43  55 W5        30.07S
TORRINGTON     FAIR      54  43  66 CALM      29.98R
PINE BLUFFS    FAIR      55  48  76 SW5       30.05S

$$




USA.gov is the U.S. government's official web portal to all federal, state and local government web resources and services.